AirNav   Pilot Hours Calculator
 
 1502 users online  

OG34 Meyer Riverside Airpark
Tigard, Oregon, USA

GOING TO TIGARD?


FAA INFORMATION EFFECTIVE 16 JUNE 2022

Location

FAA Identifier: OG34
Lat/Long: 45-23-59.4250N 122-49-44.3540W
45-23.990417N 122-49.739233W
45.3998403,-122.8289872
(estimated)
Elevation: 252 ft. / 77 m (estimated)
Variation: 19E (1985)
From city: 3 miles SW of TIGARD, OR
Time zone: UTC -7 (UTC -8 during Standard Time)
Zip code: 97224

Airport Operations

Airport use: Private use. Permission required prior to landing
Activation date: 05/1956
Control tower: no
ARTCC: SEATTLE CENTER
FSS: MC MINNVILLE FLIGHT SERVICE STATION
Attendance: ON CALL ON CALL
Wind indicator: yes
Segmented circle: no

Airport Communications

WX ASOS at UAO (9 nm S): PHONE 503-678-3011
WX ASOS at HIO (10 nm NW): PHONE 503-615-4314
WX ASOS at PDX (15 nm NE): PHONE (503) 493-7687
WX ASOS at VUO (15 nm NE): 135.125 (360-696-1280)
WX ASOS at MMV (18 nm SW): 135.675 (503-434-9153)

Airport Services

Airframe service: NONE
Powerplant service: NONE

Runway Information

Runway 16/34

Dimensions: 1585 x 100 ft. / 483 x 30 m
Surface: turf
RUNWAY 16  RUNWAY 34
Traffic pattern: leftleft
Obstructions: plines, 10 ft. from runwaytrees, 100 ft. from runway

Airport Ownership and Management from official FAA records

Ownership: Privately-owned
Owner: JAMES MEYER
14730 SW BEEF BEND RD
TIGARD, OR 97224
Phone 503-590-6903
Manager: JAMES MEYER
14730 SW BEEF BEND RD
TIGARD, OR 97224
Phone 503-590-6903

Airport Operational Statistics

Aircraft based on the field: 2
Single engine airplanes: 1
Helicopters: 1
    

Additional Remarks

FOR CD CTC PORTLAND APCH AT 503-493-7545.

Instrument Procedures

There are no published instrument procedures at OG34.

Some nearby airports with instrument procedures:

KUAO - Aurora State Airport (9 nm S)
KHIO - Portland-Hillsboro Airport (10 nm NW)
KPDX - Portland International Airport (15 nm NE)
KVUO - Pearson Field Airport (15 nm NE)
KMMV - Mc Minnville Municipal Airport (18 nm SW)
 
Loc | Ops | Rwys | IFR | FBO | Links
Com | Nav | Svcs | Stats | Notes
Area around OG34 (Meyer Riverside Airpark)
 
Road maps at: MapQuest Bing Google
 
Aerial photo
WARNING: Photo may not be current or correct
Aerial photo of OG34 (Meyer Riverside Airpark)
Do you have a better or more recent aerial photo of Meyer Riverside Airpark that you would like to share? If so, please send us your photo.

 
Sectional chart

 
Airport distance calculator
Flying to Meyer Riverside Airpark? Find the distance to fly.

From to OG34

Sunrise and sunset
Times for 29-Jun-2022
 Local
(UTC-7)
 Zulu
(UTC)
Morning civil twilight04:4911:49
Sunrise05:2712:27
Sunset21:0304:03
Evening civil twilight21:4004:40

Current date and time
Zulu (UTC)  29-Jun-2022 17:20:29
Local (UTC-7)  29-Jun-2022 10:20:29
 
METAR
KUAO 
9nm S 
291653Z 00000KT 10SM OVC025 16/12 A3020 RMK AO2 SLP226 T01610117
KHIO 
10nm NW 
291653Z 00000KT 10SM BKN023 OVC030 16/10 A3019 RMK AO2 SLP221 T01560100
KPDX 
15nm NE 
291653Z 00000KT 10SM FEW026 OVC035 18/11 A3019 RMK AO2 SLP221 T01780111
KVUO 
15nm NE 
291653Z AUTO VRB03KT 10SM OVC036 18/11 A3019 RMK AO2 SLP223 T01830111
KMMV 
18nm SW 
291653Z AUTO 21004KT 10SM OVC026 16/11 A3019 RMK AO2 SLP223 T01610106
KTTD 
20nm NE 
291653Z VRB03KT 10SM FEW028 OVC034 18/12 A3018 RMK AO2 SLP221 T01830117
TAF
KUAO 
9nm S 
291124Z 2912/3012 23003KT P6SM BKN025 OVC035 FM291900 28004KT P6SM BKN035 FM292100 35007KT P6SM FEW040
KHIO 
10nm NW 
291124Z 2912/3012 VRB03KT P6SM OVC028 FM292000 VRB03KT P6SM BKN035 FM292200 30007KT P6SM SCT050
KPDX 
15nm NE 
291436Z 2915/3012 32003KT P6SM OVC025 FM291900 31006KT P6SM BKN035 FM292100 31008KT P6SM SCT040
KTTD 
20nm NE 
291124Z 2912/3012 VRB03KT P6SM OVC030 FM291900 29004KT P6SM BKN035 FM292100 28004KT P6SM SCT040
NOTAMs
Click for the latest NOTAMs
NOTAMs are issued by the DoD/FAA and will open in a separate window not controlled by AirNav.

 

 
 

Would you like to see your business listed on this page?

 If your business provides an interesting product or service to pilots, flight crews, aircraft, or users of the Meyer Riverside Airpark, you should consider listing it here.  To start the listing process, click on the button below
 
Add a business
 

Other Pages about Meyer Riverside Airpark

Update a link
 
Copyright © AirNav, LLC. All rights reserved. Privacy Policy  Contact